TimeCST,TemperatureF,Dew PointF,Humidity,Sea Level PressureIn,VisibilityMPH,Wind Direction,Wind SpeedMPH,Gust SpeedMPH,PrecipitationIn,Events,Conditions,WindDirDegrees,DateUTC
12:02 AM,24.8,21.2,86,30.23,7.0,North,8.1,-,N/A,,Overcast,350,2013-03-02 06:02:00
12:54 AM,25.0,21.0,85,30.26,10.0,North,8.1,-,N/A,,Overcast,350,2013-03-02 06:54:00
1:54 AM,25.0,19.9,81,30.26,10.0,NNW,8.1,-,N/A,,Overcast,340,2013-03-02 07:54:00
2:54 AM,24.1,21.0,88,30.25,10.0,NW,6.9,-,N/A,,Overcast,320,2013-03-02 08:54:00
3:54 AM,24.1,19.9,84,30.25,6.0,NNW,10.4,-,N/A,,Overcast,330,2013-03-02 09:54:00
4:54 AM,23.0,19.0,85,30.25,9.0,NNW,9.2,-,0.00,,Overcast,330,2013-03-02 10:54:00
5:54 AM,23.0,19.0,85,30.27,10.0,NW,9.2,-,N/A,,Overcast,320,2013-03-02 11:54:00
6:54 AM,23.0,18.0,81,30.28,10.0,NW,10.4,-,N/A,,Overcast,320,2013-03-02 12:54:00
7:54 AM,21.9,16.0,78,30.29,10.0,NW,8.1,-,N/A,,Clear,310,2013-03-02 13:54:00
8:54 AM,24.1,16.0,71,30.29,10.0,NW,11.5,-,N/A,,Clear,320,2013-03-02 14:54:00
9:54 AM,25.0,17.1,72,30.30,10.0,NW,12.7,-,N/A,,Clear,320,2013-03-02 15:54:00
10:54 AM,26.1,17.1,69,30.30,10.0,NW,17.3,-,N/A,,Clear,310,2013-03-02 16:54:00
11:54 AM,28.0,17.1,63,30.30,10.0,NW,12.7,-,N/A,,Clear,310,2013-03-02 17:54:00
12:54 PM,28.9,16.0,58,30.27,10.0,NW,11.5,-,N/A,,Clear,310,2013-03-02 18:54:00
1:54 PM,28.9,17.1,61,30.25,10.0,WNW,10.4,-,N/A,,Clear,300,2013-03-02 19:54:00
2:54 PM,30.0,15.1,54,30.25,10.0,WNW,8.1,-,N/A,,Clear,300,2013-03-02 20:54:00
3:54 PM,28.9,15.1,56,30.25,10.0,WNW,12.7,-,N/A,,Clear,300,2013-03-02 21:54:00
4:54 PM,28.0,14.0,56,30.26,10.0,NW,10.4,-,N/A,,Clear,320,2013-03-02 22:54:00
5:54 PM,24.1,12.0,60,30.26,10.0,NNW,6.9,-,N/A,,Clear,330,2013-03-02 23:54:00
6:54 PM,23.0,12.0,63,30.27,10.0,Calm,Calm,-,N/A,,Clear,0,2013-03-03 00:54:00
7:54 PM,21.9,12.0,66,30.26,10.0,NW,5.8,-,N/A,,Clear,310,2013-03-03 01:54:00
8:54 PM,19.9,10.9,68,30.26,10.0,NW,4.6,-,N/A,,Clear,320,2013-03-03 02:54:00
9:54 PM,19.9,10.0,65,30.25,10.0,Calm,Calm,-,N/A,,Clear,0,2013-03-03 03:54:00
10:54 PM,18.0,10.0,71,30.25,10.0,NW,3.5,-,N/A,,Clear,310,2013-03-03 04:54:00
11:54 PM,16.0,9.0,74,30.24,10.0,Calm,Calm,-,N/A,,Clear,0,2013-03-03 05:54:00